logo
Rechercher aéroport 
image banner adimage banner adimage banner ad
image banner ad

1VT8 - Mortimer Brown Landing

Situé à Castleton, United States

ICAO - 1VT8, IATA -

Données fournies par Airmate  

Information générale

Coordonnées: N43°39'58" W73°9'58"
Élévation : 900 feet MSL.
 
Voir autres Aéroports à Vermont

Données opérationnelles

Special qualification required
Heure actuelle UTC:
Heure actuelle locale:
METAR: KRUT 241917Z AUTO 33009KT 10SM BKN015 OVC040 17/16 A2962 RMK AO2 RAE06 P0000 $
TAF: KRUT 241734Z 2418/2518 35004KT P6SM VCSH FEW024 BKN040 TEMPO 2418/2421 -SHRA FEW018 BKN028 FM242100 32009G17KT 6SM -SHRA BR OVC015 FM242300 32010G16KT P6SM VCSH BKN029 FM250000 VRB03KT P6SM BKN045 WS020/01040KT FM250500 13004KT P6SM SCT190
Voir NOTAMs / SUP AIP / TFR affectant cet aéroport [VIEW]
Fréquences de communication: [VIEW]

Pistes:

Identifiant RWYQFULongueur (ft)Largeur (ft)SurfaceLDA (ft)
18165080GRASS
36165080GRASS

Coordonnées de l'aéroport

Adresse: Castleton United States

Vue satellite de 1VT8